Location: Corralito
(10.2667°N, 66.9500°W)
Time: 21:25:00
(UTC+00:00)

Daily predictions for brighter satellites

Satellite Brightness Start Highest point End
(mag) Time Altitude Azimuth Time Altitude Azimuth Time Altitude Azimuth
NOAA 6 4.1 22:48:52 10° SSE 22:54:03 89° W 22:59:13 10° NNW
SL-16 R/B 2.2 22:51:51 10° N 22:57:27 64° ENE 23:03:02 10° SSE
BLOCK DM-SL R/B 4.3 22:56:16 10° WSW 23:00:51 36° S 23:06:57 10° ESE
SL-27 R/B 4.4 23:00:38 10° SW 23:03:40 32° WNW 23:06:41 10° NNW
SL-24 R/B 4.0 22:59:32 10° SSE 23:03:47 73° ENE 23:08:01 10° N
SL-4 R/B 2.3 23:00:03 10° SW 23:04:37 89° NW 23:09:17 10° NE
Sakura Rocket 3.5 23:01:50 10° NW 23:05:17 34° NNE 23:08:31 11° E
Cosmos 2360 Rocket 3.1 23:00:44 10° NNE 23:05:27 28° ENE 23:10:10 10° SE
SEDSat Delta rocket 3.8 23:00:08 10° WNW 23:05:43 81° SSW 23:12:04 10° SE
GPS 2-15 Rocket1 3.1 23:01:28 10° WNW 23:06:06 78° NNE 23:10:39 10° ESE
ARIANE 5 DEB (SYLDA) 4.0 23:04:47 10° WSW 23:08:26 61° S 23:18:34 12° E
CZ-4B DEB 4.4 23:03:59 10° SSE 23:09:19 52° ENE 23:14:39 10° N
Okean O Rocket 3.5 23:08:49 10° E 23:10:20 12° ENE 23:11:56 10° NE
BlueWalker 3 2.9 23:07:18 10° S 23:10:44 29° ESE 23:14:10 10° ENE
YAOGAN 1 3.3 23:07:42 10° SE 23:11:27 30° ENE 23:15:12 10° NNE
Kakehashi 4.4 23:02:01 10° WNW 23:16:39 69° NNE 23:22:01 13° ESE
FALCON 9 R/B 4.2 23:13:03 10° NNW 23:17:14 22° NNE 23:27:18 11° ENE
Ariane H10 4.1 23:06:44 10° WSW 23:17:34 38° SSW 23:20:27 12° ESE
Meteor 1-23 Rocket 4.5 23:13:20 10° NNE 23:18:35 44° E 23:23:54 10° SSE
YAOGAN 3 4.5 23:15:29 10° SSE 23:19:47 70° ENE 23:24:05 10° N
Cosmos 2123 Rocket 4.2 23:15:03 10° SSE 23:20:58 46° E 23:26:54 10° NNE
Cosmos 1452 Rocket 3.4 23:19:58 10° S 23:25:12 77° ESE 23:30:26 10° NNE
ATLAS 3B CENTAUR R/B 1.5 23:21:37 10° WSW 23:25:15 49° NNW 23:27:49 14° NE
PLATFORM 4.5 23:22:43 10° SSW 23:26:23 87° WNW 23:30:03 10° NNE
Cosmos 2237 4.4 23:21:12 10° NNW 23:26:52 78° WSW 23:32:32 10° S
Cosmos 1331 Rocket 4.2 23:22:00 10° S 23:26:54 46° ESE 23:31:48 10° NNE
FALCON 9 DEB 3.0 23:25:05 10° NW 23:27:15 46° WSW 23:29:07 13° SSE
GPS 2-04 Rocket1 2.4 23:26:43 10° SW 23:30:14 61° SE 23:32:15 23° ENE
H-2A ROCKET BODY 3.2 23:28:35 10° SSW 23:32:15 16° S 23:33:41 13° SE
Spot 1 4.5 23:27:12 10° NNE 23:32:19 89° E 23:37:27 10° SSW
Cosmos 1842 3.0 23:29:06 10° N 23:32:52 74° E 23:36:38 10° S
Haruka 3.3 23:29:26 10° NW 23:32:55 57° NE 23:38:14 19° ESE
Cosmos 1805 3.6 23:29:38 10° SSE 23:33:11 37° E 23:36:42 10° NNE
Lacrosse 5 rocket 4.3 23:32:03 10° WSW 23:35:13 19° WNW 23:38:20 10° N
Cosmos 1153 Rocket 4.4 23:29:28 10° N 23:35:43 80° E 23:41:52 10° S
Tiangong 0.0 23:36:19 10° N 23:37:47 15° NNE 23:37:47 15° NNE
ARIANE 44LP R/B 4.3 23:38:35 10° SSW 23:39:06 11° S 23:39:10 11° S
Cosmos 1975 3.4 23:35:19 10° SSW 23:39:10 59° W 23:43:01 10° N
Cosmos 1726 2.1 23:36:11 10° SSE 23:39:31 44° E 23:42:50 10° NNE
Cosmos 2173 Rocket 4.2 23:37:53 10° NNE 23:43:59 49° E 23:50:02 10° SSE
SL-23 DEB 4.5 23:38:35 10° NW 23:45:28 80° SW 23:48:20 20° SSE
Okean 3 3.5 23:43:47 10° N 23:47:55 53° E 23:51:30 13° SSE
Cosmos 1707 2.6 23:44:28 10° N 23:48:10 59° E 23:50:31 21° SSE
In-Cosmos 22 4.2 23:42:51 10° N 23:48:30 59° E 23:54:09 10° SSE
CZ-4B R/B 3.2 23:43:13 10° SSE 23:48:46 63° ENE 23:54:21 10° N
Cosmos 1674 2.9 23:47:38 10° N 23:50:46 44° ENE 23:50:46 44° ENE
GPS 2-12 Rocket1 3.2 23:46:57 10° WNW 23:51:18 55° NNE 23:52:28 41° ENE
Cosmos 2322 Rocket 2.9 23:46:26 10° NNW 23:51:57 54° WSW 23:57:29 10° S
Cosmos 2251 Rocket 4.4 23:47:31 10° NNW 23:52:32 49° W 23:57:34 10° S
Cosmos 1869 Rocket 3.7 23:49:03 10° S 23:53:21 72° W 23:57:38 10° N
Cosmos 2333 4.3 23:48:10 10° N 23:53:44 52° ENE 23:56:32 28° SE
Cosmos 1190 Rocket 4.0 23:48:54 10° N 23:54:01 58° ENE 23:57:11 23° SSE
Okean 1-7 2.8 23:51:19 10° N 23:55:36 68° E 23:58:57 16° SSE
